This is the latest recevied weather packets stored in our database for station/object KE4EST. If no packets are shown the sender has not sent any weather packets the latest 10 day(s).
| Time | Temp. | Humidity | Pressure | Rain* | Wind** | Luminosity | Snow |
|---|---|---|---|---|---|---|---|
| 1777670816 | 17.22° C | 55% | 1013.5 hPa | 0 mm | - | 116 W/m² | - |
| 1777670513 | 17.22° C | 50% | 1013.5 hPa | 0 mm | - | 103 W/m² | - |
| 1777670210 | 17.78° C | 51% | 1013.4 hPa | 0 mm | - | 109 W/m² | - |
| 1777669907 | 17.78° C | 50% | 1013.5 hPa | 0 mm | - | 108 W/m² | - |
| 1777669604 | 17.78° C | 53% | 1013.3 hPa | 0 mm | - | 119 W/m² | - |
| 1777669301 | 17.78° C | 52% | 1013.4 hPa | 0 mm | - | 132 W/m² | - |
| 1777668997 | 17.78° C | 53% | 1013.2 hPa | 0 mm | - | 156 W/m² | - |
| 1777668694 | 17.78° C | 52% | 1013.4 hPa | 0 mm | - | 138 W/m² | - |
| 1777668391 | 17.78° C | 51% | 1013.3 hPa | 0 mm | - | 139 W/m² | - |
| 1777668087 | 17.78° C | 53% | 1013.4 hPa | 0 mm | - | 155 W/m² | - |
| 1777667783 | 17.78° C | 53% | 1013.4 hPa | 0 mm | - | 168 W/m² | - |
| 1777667481 | 17.78° C | 51% | 1013.5 hPa | 0 mm | - | 169 W/m² | - |
| 1777667178 | 17.78° C | 50% | 1013.4 hPa | 0 mm | - | 161 W/m² | - |
| 1777666875 | 17.78° C | 51% | 1013.6 hPa | 0 mm | - | 190 W/m² | - |
| 1777666572 | 17.78° C | 50% | 1013.6 hPa | 0 mm | - | 222 W/m² | - |
| 1777666269 | 18.89° C | 49% | 1013.6 hPa | 0 mm | - | 206 W/m² | - |
| 1777665965 | 18.89° C | 51% | 1013.7 hPa | 0 mm | - | 256 W/m² | - |
| 1777665663 | 18.33° C | 51% | 1013.7 hPa | 0 mm | - | 259 W/m² | - |
| 1777665360 | 17.78° C | 52% | 1013.5 hPa | 0 mm | - | 222 W/m² | - |
| 1777665055 | 17.78° C | 50% | 1013.5 hPa | 0 mm | - | 165 W/m² | - |
| 1777664751 | 18.33° C | 50% | 1013.8 hPa | 0 mm | - | 146 W/m² | - |
| 1777664447 | 18.33° C | 52% | 1014.1 hPa | 0 mm | - | 176 W/m² | - |
| 1777664144 | 18.33° C | 52% | 1013.9 hPa | 0 mm | - | 187 W/m² | - |
| 1777663843 | 18.33° C | 49% | 1013.7 hPa | 0 mm | - | 207 W/m² | - |
| 1777663539 | 18.33° C | 50% | 1013.9 hPa | 0 mm | - | 210 W/m² | - |
* Rain latest hour (hover to see other rain measurements)
** Current wind speed in m/s (hover to see current wind gust speed)